ARIANE 2 R/B, 19773

Orbit data source: Space-Track

ARIANE 2 R/B, 19773 is space debris in HEO originally from a launch on Fri, 27 Jan 1989 UTC launched from the French Guiana (FRGUI). Debris objects in space refer to the collection of defunct objects orbiting the Earth. Examples of debris include non-operational satellites, rocket bodies, and fragments generated from explosions, collisions, or faulty payload assembly.

Loading next visibility...
Identifier
19773, 1989-006B
Orbit
HEO
Country
Flag of FRFR
Related business
Manufacturer
Ae/LesM
Mission
Spacecraft
Bus & Motor
ARIANE H10, Unknown motor
Mass
1,820 kg wet, 1,820 kg dry
Launch date (UTC)
1989-01-27 (37 years ago)
Launch vehicle
Unknown
Launch site
French Guiana (FRGUI)
Object type
Payload
Rocket body
Debris
Shape & HBR
Cyl, 5.9 m
Radar Cross Section
26.751 m², Large (>1 m²)

Expand to show TLE details & history
Last TLE update: 3 days ago

TLE from 3 days ago
0 ARIANE 2 R/B
1 19773U 89006B   26171.18836993  .00000152  00000-0  19285-2 0  9999
2 19773   8.3680  48.9080 7152789 127.4307 320.8943  2.29269111310732
Epoch: 2026-06-20T04:31Z
TLE epoch observation values (Epoch: 2026-06-20T04:31:15.161Z)
Latitude
0.00007°
Longitude
72.5484°
Altitude
14,685.116 km
Speed
4.63 km/s
True Right ascension
03h 15m 04s
True Declination
0° 00' 00"
Sunlit
Object was in daylight at epoch
Visualization orbit readout
Latitude
Unknown
Longitude
Unknown
Altitude
Unknown
Speed
Unknown
Apparent Right ascension
Unknown
Apparent Declination
Unknown
Sunlit
N/A
Visualization observer readout
Local Sidereal Time
11:35:23
Azimuth
Unknown
Elevation
Unknown
Doppler factor
Unknown
Orbital elements
Apogee altitude
35,302.252 km
Perigee altitude
540.438 km
Semi-major axis
24,299.482 km
Eccentricity
0.71528
Inclination
8.368°
RAAN
48.908°
Arg. of periapsis
127.4307°
True anomaly
232.28843°
Mean anomaly
320.8943°
Eccentric anomaly
280.61289°
Mean motion
0.57299 °/min
Orbital period
628.28 mins
BSTAR
0.0019285
Loading maneuver chart data...
Computing Atmospheric mass density...
Loading historical data...
Loading historical data...
Loading historical data...
Loading historical data...
Loading historical data...
Loading historical data...
Loading historical data...

Documentation

Showing up to 5 results
|